Date,TemperatureHighF,TemperatureAvgF,TemperatureLowF,DewpointHighF,DewpointAvgF,DewpointLowF,HumidityHigh,HumidityAvg,HumidityLow,PressureMaxIn,PressureMinIn,WindSpeedMaxMPH,WindSpeedAvgMPH,GustSpeedMaxMPH,PrecipitationSumIn
2013-3-1,55,42,29,28,22,14,54,45,34,0.00,40.00,0,0,0,0.00
2013-3-2,61,49,42,27,25,21,44,39,28,0.00,40.00,0,0,0,0.00
2013-3-3,53,45,40,30,26,23,54,47,41,0.00,40.00,0,0,0,0.00
2013-3-4,26,19,12,14,9,5,75,66,50,0.00,40.00,0,0,0,0.00
2013-3-5,26,19,11,17,10,5,76,69,61,0.00,40.00,0,0,0,0.00
2013-3-6,33,26,17,23,17,11,83,70,57,0.00,40.00,0,0,0,0.00
2013-3-7,36,31,28,23,22,20,78,68,56,0.00,40.00,0,0,0,0.00
2013-3-8,40,33,28,26,25,22,85,71,56,0.00,40.00,0,0,0,0.00
2013-3-9,45,36,26,17,14,11,62,42,29,0.00,40.00,0,0,0,0.00
2013-3-10,54,40,26,19,16,13,60,40,22,0.00,40.00,0,0,0,0.00
2013-3-11,45,36,28,23,19,14,60,49,31,0.00,40.00,0,0,0,0.00
2013-3-12,44,32,22,19,16,13,85,54,32,0.00,40.00,0,0,0,0.00
2013-3-13,66,50,36,27,22,17,46,34,22,0.00,40.00,0,0,0,0.00
2013-3-14,66,55,47,30,25,22,39,31,24,0.00,40.00,0,0,0,0.00
2013-3-15,64,52,34,28,24,21,72,35,23,0.00,40.00,0,0,0,0.00
2013-3-16,48,34,22,26,23,20,91,68,37,0.00,40.00,0,0,0,0.00
2013-3-17,38,32,20,29,17,6,90,57,26,0.00,40.00,0,0,0,0.00
2013-3-18,40,26,11,17,10,3,86,55,21,0.00,40.00,0,0,0,0.00
2013-3-19,34,27,21,22,17,12,88,65,41,0.00,40.00,0,0,0,0.00
2013-3-20,53,38,24,19,15,10,60,40,22,0.00,40.00,21,8,24,0.00
2013-3-21,44,37,30,31,17,3,91,47,23,0.00,40.00,26,14,37,0.00
2013-3-22,31,26,20,24,12,2,85,58,31,0.00,40.00,20,10,27,0.00
2013-3-23,33,22,13,12,6,1,76,54,26,0.00,40.00,14,7,22,0.00
2013-3-24,29,20,12,10,7,4,83,58,36,0.00,40.00,13,7,23,0.00
2013-3-25,44,30,15,11,6,2,68,41,18,0.00,40.00,21,10,26,0.00
2013-3-26,52,39,30,18,9,2,35,29,24,0.00,40.00,16,8,22,0.00
2013-3-27,61,44,27,22,17,10,55,35,22,0.00,40.00,17,7,22,0.00
2013-3-28,64,49,33,27,22,15,53,35,23,0.00,40.00,15,7,18,0.00
2013-3-29,59,49,38,36,28,19,73,45,32,0.00,40.00,19,9,34,0.00
2013-3-30,58,47,40,35,26,-100,75,47,25,0.00,40.00,29,12,37,0.00
2013-3-31,58,46,37,28,22,17,49,39,31,0.00,40.00,26,14,34,0.00